KD3TB Weather Reports


time (UTC)temp
C
wind
direction
speed
KPH
gust
KPH
rain 1hr
cm
rain 24hr
cm
rain mn
cm
humidity
%
barometer
mb
20190525040111 17 34 0.0 3.2 0.00 0.00 0.00 61 1017.6
20190525034613 17 53 0.0 11.3 0.00 0.00 0.00 60 1017.3
20190525033119 17 107 1.6 12.9 0.00 0.00 0.00 60 1017.1
20190525031635 17 73 0.0 8.0 0.00 0.00 0.00 59 1017.1
20190525030114 18 50 0.0 14.5 0.00 0.00 0.00 58 1016.6
20190525024553 18 16 4.8 12.9 0.00 0.00 0.00 57 1016.7
20190525023133 18 49 0.0 16.1 0.00 0.00 0.00 56 1016.7
20190525021616 19 61 0.0 14.5 0.00 0.00 0.00 55 1016.7
20190525020155 19 71 0.0 14.5 0.00 0.00 0.00 54 1016.6
20190525014656 20 74 0.0 6.4 0.00 0.00 0.00 53 1016.6
20190525013142 20 44 0.0 3.2 0.00 0.00 0.00 52 1016.5
20190525011618 20 32 0.0 0.0 0.00 0.00 0.00 51 1016.1
20190525010111 20 32 0.0 0.0 0.00 0.00 0.00 50 1015.7
20190525004626 21 32 0.0 3.2 0.00 0.00 0.00 48 1015.6
20190525003132 21 31 0.0 4.8 0.00 0.00 0.00 46 1015.6
20190525001622 22 30 0.0 3.2 0.00 0.00 0.00 45 1015.5
20190525000115 22 12 0.0 4.8 0.00 0.00 0.00 43 1015.1
20190524234646 22 316 0.0 12.9 0.00 0.00 0.00 41 1015.0
20190524233117 23 290 0.0 9.7 0.00 0.00 0.00 41 1015.0
20190524231628 23 323 1.6 19.3 0.00 0.00 0.00 39 1014.6
20190524230042 24 19 1.6 12.9 0.00 0.00 0.00 39 1014.5
20190524224607 24 73 3.2 14.5 0.00 0.00 0.00 37 1014.1
20190524223103 25 299 3.2 19.3 0.00 0.00 0.00 37 1014.0
20190524221616 25 5 3.2 16.1 0.00 0.00 0.00 35 1013.9
20190524220128 25 290 3.2 22.5 0.00 0.00 0.00 36 1013.7
20190524214614 25 5 6.4 17.7 0.00 0.00 0.00 36 1013.5
20190524213047 25 304 4.8 17.7 0.00 0.00 0.00 37 1013.5
20190524211622 25 73 3.2 17.7 0.00 0.00 0.00 37 1013.0
20190524210128 25 333 1.6 19.3 0.00 0.03 0.00 37 1013.0
20190524204631 25 279 1.6 12.9 0.00 0.03 0.00 38 1012.9
20190524203052 25 284 0.0 20.9 0.00 0.03 0.00 37 1012.8
20190524201642 26 286 4.8 17.7 0.00 0.03 0.00 36 1012.6
20190524194549 26 313 4.8 24.1 0.00 0.30 0.00 36 1012.5
20190524193010 26 293 1.6 14.5 0.00 0.30 0.00 36 1012.4
20190524191505 26 306 1.6 16.1 0.00 0.30 0.00 37 1012.5
20190524190003 25 328 4.8 12.9 0.00 0.30 0.00 37 1012.4
20190524184500 25 273 3.2 24.1 0.00 0.30 0.00 38 1012.5
20190524183245 25 282 0.0 11.3 0.00 0.30 0.00 37 1012.4
20190524181724 25 276 4.8 19.3 0.00 0.30 0.00 38 1012.0
20190524180147 25 303 3.2 19.3 0.00 0.30 0.00 35 1011.9
20190524174643 25 246 4.8 16.1 0.00 0.30 0.00 38 1012.0
20190524173139 24 323 3.2 19.3 0.00 0.30 0.00 39 1012.0
20190524171633 24 306 1.6 14.5 0.00 0.30 0.00 41 1012.0
20190524170202 23 325 0.0 16.1 0.00 0.30 0.00 42 1012.1
20190524164717 23 15 3.2 14.5 0.00 0.30 0.00 40 1012.0
20190524163151 23 313 3.2 20.9 0.00 0.30 0.00 41 1012.0
20190524161640 23 21 3.2 17.7 0.00 0.30 0.00 42 1011.6
20190524160159 22 290 1.6 16.1 0.00 0.30 0.00 44 1011.5
20190524154617 22 333 1.6 17.7 0.00 0.30 0.00 45 1011.4
20190524153258 22 275 6.4 17.7 0.00 0.30 0.00 43 1011.4
20190524151607 22 303 4.8 20.9 0.00 0.30 0.00 42 1011.4
20190524150056 22 296 8.0 19.3 0.00 0.33 0.00 41 1011.0
20190524144623 22 18 1.6 14.5 0.00 0.33 0.00 42 1010.9
20190524143312 22 313 1.6 20.9 0.00 0.33 0.00 42 1010.8
20190524141621 22 288 0.0 12.9 0.00 0.33 0.00 43 1010.7
20190524140113 21 300 4.8 20.9 0.00 0.33 0.00 42 1010.9
20190524134633 21 288 1.6 19.3 0.00 0.33 0.00 44 1010.7
20190524133048 21 262 4.8 14.5 0.00 0.33 0.00 43 1010.5
20190524131614 21 263 6.4 27.4 0.00 0.33 0.00 43 1010.5
20190524130047 21 284 4.8 19.3 0.00 0.33 0.00 44 1010.4
20190524124612 20 269 11.3 20.9 0.00 0.33 0.00 46 1010.3
20190524123107 20 267 6.4 25.7 0.00 0.33 0.00 47 1010.2
20190524121619 20 267 9.7 22.5 0.00 0.33 0.00 49 1010.3
20190524120106 20 293 3.2 17.7 0.00 0.46 0.00 50 1010.3
20190524114548 20 281 4.8 20.9 0.00 0.46 0.00 51 1010.2
20190524113110 19 288 0.0 16.1 0.00 0.46 0.00 53 1010.2
20190524111551 18 288 4.8 20.9 0.00 0.46 0.00 55 1010.0
20190524110059 18 274 3.2 17.7 0.00 0.46 0.00 59 1009.9
20190524104557 18 292 1.6 12.9 0.00 0.46 0.00 63 1009.9
20190524103059 18 292 1.6 6.4 0.00 0.46 0.00 67 1009.5
20190524101551 17 288 0.0 6.4 0.00 0.46 0.00 74 1009.3
20190524100035 17 284 0.0 12.9 0.00 0.46 0.00 82 1008.9
20190524094522 17 262 0.0 0.0 0.00 0.46 0.00 82 1008.8
20190524093047 18 262 0.0 0.0 0.00 0.46 0.00 83 1008.5
20190524091541 18 261 0.0 0.0 0.00 0.46 0.00 86 1008.3
20190524090024 18 261 0.0 0.0 0.00 0.46 0.00 86 1008.1
20190524084522 18 261 0.0 1.6 0.00 0.46 0.00 86 1007.8
20190524083033 19 261 0.0 6.4 0.00 0.46 0.00 87 1007.8
20190524081510 19 261 0.0 3.2 0.00 0.46 0.00 89 1007.8
20190524080013 19 261 0.0 1.6 0.00 0.46 0.00 90 1007.7
20190524074522 19 261 0.0 1.6 0.00 0.46 0.00 91 1007.6
20190524073014 19 261 0.0 1.6 0.00 0.46 0.00 91 1007.4
20190524071509 19 261 0.0 1.6 0.00 0.46 0.00 91 1007.4
20190524070015 20 261 0.0 3.2 0.00 0.46 0.00 90 1007.6
20190524064508 20 261 0.0 1.6 0.00 0.46 0.00 89 1007.8
20190524063016 20 261 0.0 0.0 0.00 0.46 0.00 87 1007.9
20190524061629 20 261 0.0 1.6 0.00 0.46 0.00 85 1007.8
20190524060143 20 261 0.0 4.8 0.00 0.46 0.00 84 1007.8
20190524054652 21 261 3.2 8.0 0.00 0.46 0.00 83 1007.8
20190524053207 20 282 0.0 8.0 0.00 0.46 0.00 84 1007.7
20190524051628 21 270 0.0 4.8 0.00 0.46 0.00 85 1007.6
20190524050216 21 274 0.0 4.8 0.00 0.46 0.00 85 1007.9
20190524044633 21 275 0.0 6.4 0.00 0.46 0.00 86 1008.0
20190524043242 21 275 0.0 6.4 0.00 0.46 0.00 86 1007.9
20190524041901 21 273 0.0 3.2 0.00 0.46 0.00 86 1008.0